{"data":{"norad_id":56428,"epoch":"2026-09-20T23:27:14.208192Z","epoch_age_seconds":70771,"freshness":"FRESH","line1":"1 56428U 23061BG  26263.97724778  .00000558  00000+0  29793-4 0  9998","line2":"2 56428  43.0023 156.9062 0001429 267.8234  92.2454 15.27578272186823","mean_motion":15.27578272,"eccentricity":0.0001429,"inclination_deg":43.0023,"raan_deg":156.9062,"arg_perigee_deg":267.8234,"mean_anomaly_deg":92.2454,"bstar":2.9793e-5,"rev_number":18682,"period_min":94.266855348411,"perigee_km":482.07380606565,"apogee_km":484.0347345307,"semimajor_km":6861.1912702982,"source":"CELESTRAK","updated_at":"2026-09-21T09:00:33.440444Z"}}